Regional Weather Roundup
Issued by NWS

Home | Current Version | Previous Version | Text Only | Print | Product List | Glossary Off
Versions: 1 2 3 4 5 6 7 8 9 10 11 12 13 14 15 16 17 18 19 20 21 22 23 24 25 26 27 28 29 30 31 32 33 34 35 36 37 38 39 40 41 42 43 44 45 46 47 48 49 50

000
ASUS43 KIND 140759
RWRIN

WEATHER ROUNDUP FOR INDIANA
NATIONAL WEATHER SERVICE INDIANAPOLIS IN
300 AM EST THU DEC 14 2017

NOTE: "FAIR" INDICATES FEW OR NO CLOUDS BELOW 12,000 FEET WITH NO
SIGNIFICANT WEATHER AND/OR OBSTRUCTIONS TO VISIBILITY.

* - STATION DOES NOT REPORT WEATHER SUCH AS PRECIPITATION OR FOG.

+ - STATION NOT QUALITY CONTROLLED BY THE NATIONAL WEATHER SERVICE.
    USE DATA WITH CAUTION...ESPECIALLY DEWPOINT AND RELATIVE
    HUMIDITY OBSERVATIONS.

INZ001>003-010>013-019-020-140900-
NORTHWEST INDIANA

CITY           SKY/WX    TMP DP  RH WIND       PRES   REMARKS
MONTICELLO +   CLOUDY    29  19  66 N17       29.81R WCI  17

$$

LMZ046-743>745-140900-
SOUTHERN LAKE MICHIGAN

STATION/POSITION TIME  TEMP    WIND        PRES    WAVE
                       AIR SEA DIR/SP/G            HT
                 (UTC) (F)     (DEG/KT/KT) (MB)    (FT)
BURNS HARBOR     0740   30      20/ 23/ 29 1010.5R
MICHIGAN CITY    0730   28     360/ 29/ 33   N/A

$$

INZ004-005-014>016-021>024-140900-
NORTH CENTRAL INDIANA

CITY           SKY/WX    TMP DP  RH WIND       PRES   REMARKS
GOSHEN         CLOUDY    20  14  77 N10       29.80R WCI   9
PERU/GRISSOM   CLOUDY    24  17  73 N17       29.80R WCI  11
SOUTH BEND     CLEAR     15  13  91 N9        29.83R WCI   3

$$

INZ006>009-017-018-025>027-140900-
NORTHEAST INDIANA

CITY           SKY/WX    TMP DP  RH WIND       PRES   REMARKS
FORT WAYNE     CLOUDY    22  16  78 N13       29.79R WCI  10
KENDALLVILLE + CLOUDY    19  15  84 N15G21    29.75R WCI   5

$$

INZ028-029-035-036-043>045-051>053-140900-
WEST CENTRAL INDIANA

CITY           SKY/WX    TMP DP  RH WIND       PRES   REMARKS
LAFAYETTE      CLOUDY    30  19  63 N16G28    29.83R WCI  19
TERRE HAUTE    CLOUDY    28  18  66 NW9       29.86R WCI  19

$$

INZ030>032-037>040-046>048-054>057-064-065-140900-
CENTRAL INDIANA

CITY           SKY/WX    TMP DP  RH WIND       PRES   REMARKS
INDIANAPOLIS   CLOUDY    30  19  63 NW17G26   29.80R WCI  18
-EAGLE CREEK   CLOUDY    30  19  63 NW20G25   29.79R WCI  17
KOKOMO +       MOCLDY    25  18  74 N16       29.81R WCI  12
MT COMFORT *+  CLOUDY    28  23  80 NW16G23   29.78R WCI  17
SHELBYVILLE    CLOUDY    31  19  61 NW15      29.78R WCI  20

$$

INZ033-034-041-042-049-050-058-059-140900-
EAST CENTRAL INDIANA

CITY           SKY/WX    TMP DP  RH WIND       PRES   REMARKS
MUNCIE         MOCLDY    27  17  66 NW20G28   29.77R WCI  13
RICHMOND +     CLOUDY    28  23  80 NW18G28   29.71R WCI  16

$$

INZ060-061-067>069-081>083-085>088-140900-
SOUTHWEST INDIANA

CITY           SKY/WX    TMP DP  RH WIND       PRES   REMARKS
EVANSVILLE     CLOUDY    37  27  67 NW12G20   29.88R WCI  29
HUNTINGBURG +  CLOUDY    36  27  69 NW14      29.83R WCI  27

$$

INZ062-063-066-070>080-084-089>092-140900-
SOUTH CENTRAL AND SOUTHEAST INDIANA

CITY           SKY/WX    TMP DP  RH WIND       PRES   REMARKS
BLOOMINGTON    PTCLDY    29  18  63 NW9G20    29.83R WCI  20
SEYMOUR +      PTCLDY    34  21  60 NW15      29.81R WCI  24

$$




USA.gov is the U.S. government's official web portal to all federal, state and local government web resources and services.